User: anonymous   Login
Location: Caltech
(34.1382°N, 118.1253°W)
Time: 16:01:45
(UTC-08:00)
Language:

Cosmos 1939 Rocket - Orbit

View from above orbital plane
View from above orbital plane
View from above satellite
View from above satellite

Ground track
Ground track

The orbit data is extracted from the following two-line orbital elements,

1 19046U 88032B   16343.41928332  .00001210  00000-0  95201-4 0  9995
2 19046  97.5588  29.5441 0039853 257.7752 101.9008 15.02099112544004
Epoch (UTC): 08 December 2016 10:03:46
Eccentricity: 0.0039853
inclination: 97.5588°
perigee height: 533 km
apogee height: 588 km
right ascension of ascending node: 29.5441°
argument of perigee: 257.7752°
revolutions per day: 15.02099112
mean anomaly at epoch: 101.9008°
orbit number at epoch: 54400

The dashed part of the orbit path shows where the satellite is in the earth's shadow,  

DLR